Location: ??????????
(31.2156°N, 29.9553°E)
Time: 05:04:53
(UTC+00:00)

Cosmos 2360 Rocket - Pass Details

Date: 03 March 2021
Orbit: 832 x 846 km, 71.0° (Epoch: 14 April)

Event Time Altitude Azimuth Distance (km) Brightness Sun altitude
Rises 16:50:36 0° 202° (SSW) 3,368 5.6 -11.6°
Reaches altitude 10° 16:53:01 10° 203° (SSW) 2,439 4.9 -12.1°
Maximum altitude 16:58:37 79° 290° (WNW) 856 2.3 -13.3°
Drops below altitude 10° 17:04:17 10° 17° (NNE) 2,461 4.5 -14.5°
Sets 17:06:44 0° 19° (NNE) 3,400 5.2 -15.1°
